FENGYUN 1C DEB, 31455

Orbit data source: Space-Track

FENGYUN 1C DEB, 31455 is space debris in SSO originally from a launch on Mon, 10 May 1999 UTC launched from the Taiyaun Space Center, China (TSC). Fengyun 1C debris stems from the Chinese weather satellite Fengyun-1C, which was intentionally destroyed by a Chinese anti-satellite missile in 2007. This event dramatically increased the amount of space debris, with thousands of trackable fragments posing hazards to satellites and human spaceflight. The Fengyun 1C debris cloud has become a focal point in discussions about space sustainability and the need for international regulations to prevent the creation of new debris.

Loading next visibility...
Identifier
31455, 1999-025BUT
Orbit
SSO
Country
Flag of CNCN / PRC
Related business
Manufacturer
Unknown
Mission
Spacecraft
Bus & Motor
Unknown
Mass
Unknown
Launch date (UTC)
1999-05-10 (27 years ago)
Launch vehicle
Unknown
Launch site
Taiyaun Space Center, China (TSC)
Object type
Payload
Rocket body
Debris
Shape & HBR
Unknown shape, 0.1 m
Radar Cross Section
Small (<0.1 m²)

Expand to show TLE details & history
Last TLE update: 3 days ago

TLE from 3 days ago
0 FENGYUN 1C DEB
1 31455U 99025BUT 26207.17389229  .00000470  00000-0  22443-3 0  9990
2 31455  98.5927 190.9059 0218143 127.4404 234.6836 14.11678752992840
Epoch: 2026-07-26T04:10Z
TLE epoch observation values (Epoch: 2026-07-26T04:10:24.293Z)
Latitude
-0.00008°
Longitude
-175.57092°
Altitude
950.007 km
Speed
7.329 km/s
True Right ascension
12h 43m 37s
True Declination
0° 00' 00"
Sunlit
Object was in daylight at epoch
Visualization orbit readout
Latitude
Unknown
Longitude
Unknown
Altitude
Unknown
Speed
Unknown
Apparent Right ascension
Unknown
Apparent Declination
Unknown
Sunlit
N/A
Visualization observer readout
Local Sidereal Time
07:42:36
Azimuth
Unknown
Elevation
Unknown
Doppler factor
Unknown
Orbital elements
Apogee altitude
1,008.489 km
Perigee altitude
693.101 km
Semi-major axis
7,228.932 km
Eccentricity
0.02181
Inclination
98.5927°
RAAN
190.9059°
Arg. of periapsis
127.4404°
True anomaly
232.67597°
Mean anomaly
234.6836°
Eccentric anomaly
233.6766°
Mean motion
3.53128 °/min
Orbital period
101.95 mins
BSTAR
0.00022443
Loading maneuver chart data...
Computing Atmospheric mass density...
Loading historical data...
Loading historical data...
Loading historical data...
Loading historical data...
Loading historical data...
Loading historical data...
Loading historical data...

Documentation

Showing up to 5 results
|